FW6122 Weather Reports


Display with metric or nautical units.
time (UTC)temp
F
wind
direction
speed
MPH
gust
MPH
rain 1hr
in
rain 24hr
in
rain mn
in
humidity
%
barometer
mb
20260901074555 59 212 2.0 5.0 0.00 0.00 0.00 67 1011.0
20260901073050 60 157 1.0 5.0 0.00 0.00 0.00 70 1011.0
20260901071601 60 207 1.0 8.0 0.00 0.00 0.00 70 1011.0
20260901070044 60 186 2.0 7.0 0.00 0.00 0.00 71 1011.1
20260901064542 60 182 2.0 7.0 0.00 0.00 0.00 71 1011.2
20260901063040 60 182 2.0 4.0 0.00 0.00 0.00 71 1011.3
20260901061543 60 208 1.0 4.0 0.00 0.00 0.00 71 1011.5
20260901060039 60 194 1.0 3.0 0.00 0.00 0.00 71 1011.6
20260901054538 60 180 1.0 3.0 0.00 0.00 0.00 69 1011.6
20260901053038 60 195 1.0 3.0 0.00 0.00 0.00 67 1011.6
20260901051535 60 198 1.0 3.0 0.00 0.00 0.00 66 1011.6
20260901050035 61 207 1.0 3.0 0.00 0.00 0.00 65 1011.5
20260901044534 60 209 1.0 3.0 0.00 0.00 0.00 65 1011.6
20260901043034 60 208 1.0 3.0 0.00 0.00 0.00 65 1011.5
20260901041535 61 209 1.0 3.0 0.00 0.00 0.00 64 1011.4
20260901040033 61 166 1.0 3.0 0.00 0.00 0.00 64 1011.4
20260901034538 61 210 1.0 4.0 0.00 0.00 0.00 63 1011.3
20260901033044 61 195 1.0 3.0 0.00 0.00 0.00 62 1011.1
20260901031553 61 198 0.0 2.0 0.00 0.00 0.00 62 1010.8
20260901030035 61 198 0.0 0.0 0.00 0.00 0.00 62 1010.7
20260901024531 62 198 0.0 0.0 0.00 0.00 0.00 59 1010.6
20260901023030 63 198 0.0 3.0 0.00 0.00 0.00 57 1010.3
20260901021527 64 194 0.0 4.0 0.00 0.00 0.00 55 1010.1
20260901020032 65 194 1.0 4.0 0.00 0.00 0.00 55 1009.8
20260901014525 66 214 1.0 6.0 0.00 0.00 0.00 55 1009.6
20260901013031 67 171 1.0 5.0 0.00 0.00 0.00 56 1009.7
20260901011523 67 215 3.0 7.0 0.00 0.00 0.00 55 1009.6
20260901010029 68 236 2.0 6.0 0.00 0.00 0.00 54 1009.7
20260901004523 70 251 3.0 7.0 0.00 0.00 0.00 52 1009.6
20260901003018 71 217 2.0 8.0 0.00 0.00 0.00 51 1009.6
20260901001525 72 227 3.0 6.0 0.00 0.00 0.00 49 1009.8
20260901000016 73 161 3.0 6.0 0.00 0.00 0.00 48 1009.8
20260831234516 74 201 4.0 7.0 0.00 0.00 0.00 47 1009.9
20260831233014 74 259 3.0 8.0 0.00 0.00 0.00 46 1009.9
20260831231515 75 216 3.0 8.0 0.00 0.00 0.00 44 1010.0
20260831230013 76 240 3.0 7.0 0.00 0.00 0.00 43 1010.0
20260831224513 76 249 3.0 7.0 0.00 0.00 0.00 41 1010.2
20260831223012 77 145 2.0 8.0 0.00 0.00 0.00 40 1010.3
20260831221511 78 246 3.0 7.0 0.00 0.00 0.00 39 1010.4
20260831220012 78 209 1.0 5.0 0.00 0.00 0.00 37 1010.5
20260831214511 78 155 2.0 6.0 0.00 0.00 0.00 35 1010.8
20260831213012 79 205 2.0 5.0 0.00 0.00 0.00 36 1011.0
20260831211509 78 225 2.0 5.0 0.00 0.00 0.00 35 1011.0
20260831210008 78 188 1.0 7.0 0.00 0.00 0.00 35 1011.0
20260831204508 79 186 1.0 7.0 0.00 0.00 0.00 33 1011.1
20260831203007 79 207 2.0 4.0 0.00 0.00 0.00 33 1011.2
20260831201505 79 289 2.0 5.0 0.00 0.00 0.00 31 1011.2
20260831200002 78 178 2.0 6.0 0.00 0.00 0.00 31 1011.2
20260831194503 78 174 1.0 4.0 0.00 0.00 0.00 32 1011.2
20260831193101 78 211 1.0 5.0 0.00 0.00 0.00 34 1011.2
20260831191603 77 298 1.0 6.0 0.00 0.00 0.00 36 1011.3
20260831190107 76 326 1.0 6.0 0.00 0.00 0.00 37 1011.5
20260831184558 77 201 2.0 5.0 0.00 0.00 0.00 35 1011.7
20260831183054 76 190 2.0 5.0 0.00 0.00 0.00 34 1011.6
20260831181554 75 175 2.0 5.0 0.00 0.00 0.00 37 1011.6
20260831180050 74 284 1.0 8.0 0.00 0.00 0.00 37 1011.5
20260831174552 74 92 3.0 8.0 0.00 0.00 0.00 36 1011.5
20260831173101 73 190 2.0 7.0 0.00 0.00 0.00 37 1011.4
20260831171541 72 279 2.0 7.0 0.00 0.00 0.00 36 1011.1
20260831170038 71 240 1.0 6.0 0.00 0.00 0.00 37 1011.0
20260831164545 70 233 2.0 5.0 0.00 0.00 0.00 39 1011.0
20260831163033 69 200 2.0 7.0 0.00 0.00 0.00 38 1010.8
20260831161529 68 185 1.0 5.0 0.00 0.00 0.00 42 1010.6
20260831160031 67 210 2.0 7.0 0.00 0.00 0.00 44 1010.5
20260831154525 67 169 2.0 6.0 0.00 0.00 0.00 43 1010.5
20260831153024 65 227 2.0 7.0 0.00 0.00 0.00 43 1010.4
20260831151519 65 225 3.0 5.0 0.00 0.00 0.00 43 1010.4
20260831150015 64 205 2.0 5.0 0.00 0.00 0.00 42 1010.2
20260831144512 63 238 3.0 7.0 0.00 0.00 0.00 41 1010.0
20260831143010 62 201 3.0 5.0 0.00 0.00 0.00 41 1009.7
20260831141508 61 180 3.0 7.0 0.00 0.00 0.00 39 1009.5
20260831140105 61 207 3.0 8.0 0.00 0.00 0.00 34 1009.5
20260831134504 60 236 3.0 7.0 0.00 0.00 0.00 27 1009.2
20260831133101 60 222 3.0 7.0 0.00 0.00 0.00 28 1009.0
20260831131558 60 237 4.0 7.0 0.00 0.00 0.00 25 1008.8
20260831130056 61 230 4.0 7.0 0.00 0.00 0.00 30 1008.7
20260831124604 61 202 3.0 7.0 0.00 0.00 0.00 27 1008.5
20260831123055 61 194 3.0 8.0 0.00 0.00 0.00 27 1008.5
20260831121552 61 232 3.0 8.0 0.00 0.00 0.00 30 1008.3
20260831120051 61 254 4.0 8.0 0.00 0.00 0.00 35 1008.3
20260831114553 61 235 4.0 8.0 0.00 0.00 0.00 37 1008.4
20260831113048 61 229 4.0 8.0 0.00 0.00 0.00 40 1008.4
20260831111547 61 235 4.0 9.0 0.00 0.00 0.00 45 1008.5
20260831110045 62 194 4.0 10.0 0.00 0.00 0.00 47 1008.4
20260831104600 62 219 5.0 9.0 0.00 0.00 0.00 47 1008.4
20260831103040 62 233 4.0 10.0 0.00 0.00 0.00 44 1008.6
20260831101539 62 220 4.0 9.0 0.00 0.00 0.00 39 1008.6
20260831100042 62 235 4.0 10.0 0.00 0.00 0.00 33 1008.7
20260831094533 62 225 5.0 11.0 0.00 0.00 0.00 26 1008.7
20260831093038 63 224 5.0 10.0 0.00 0.00 0.00 29 1008.7
20260831091529 63 219 4.0 8.0 0.00 0.00 0.00 25 1008.8
20260831090027 63 238 4.0 10.0 0.00 0.00 0.00 28 1008.9
20260831084524 63 232 4.0 8.0 0.00 0.00 0.00 24 1009.0
20260831083037 63 238 4.0 9.0 0.00 0.00 0.00 22 1009.2
20260831081529 63 225 3.0 10.0 0.00 0.00 0.00 23 1009.4
20260831080025 63 227 3.0 7.0 0.00 0.00 0.00 26 1009.3